DECAYED

STARLINK-3865, 52460 (Decayed)

Orbit data source: Space-Track

STARLINK-3865, 52460 was a payload satellite owned by SpaceX/Seattle (US) in LEO that was launched on Fri, 06 May 2022 UTC via an FALCON 9 launch vehicle from the Air Force Eastern Test Range (AFETR). Payload-class satellites include a variety of spacecraft equipped with specific instruments for various scientific and technological missions. These include communications satellites like Starlink; space stations such as the ISS; scientific satellites like the Hubble; Earth observation satellites from companies like Planet Labs, Umbra, and HawkEye 360; GPS; miniature CubeSats for education and research; and military/defense satellites.

Not visible in the next 10 days
Identifier
52460, 2022-049K
Orbit
Decayed
Country
Flag of USUS
Related business
Manufacturer
SpaceX/Seattle
Mission
Decayed Commercial Communications
Bus & Motor
STARLINK, Unknown motor
Mass
297 kg wet, ~220 kg dry
Launch date (UTC)
2022-05-06 (4 years ago)
Launch vehicle
FALCON 9
Launch site
Air Force Eastern Test Range (AFETR)
Object type
Payload
Rocket body
Debris
Shape & HBR
Box + 1 Pan, 10.1 m
Radar Cross Section
13.562 m², Large (>1 m²)

Expand to show TLE details & history
Last TLE update: 2 years ago

TLE from 2 years ago
0 STARLINK-3865
1 52460U 22049K   24366.93997044  .15951714  12574-4  31360-3 0  9992
2 52460  53.2004 179.4614 0001697 325.8457 158.1032 16.47264374147389
Epoch: 2024-12-31T22:33Z
TLE epoch observation values (Epoch: 2024-12-31T22:33:33.446Z)
Latitude
41.7596°
Longitude
-121.37888°
Altitude
151.522 km
Speed
7.82 km/s
True Right ascension
21h 11m 24s
True Declination
41° 34' 23"
Sunlit
Object was in daylight at epoch
Visualization orbit readout
Latitude
Unknown
Longitude
Unknown
Altitude
Unknown
Speed
Unknown
Apparent Right ascension
Unknown
Apparent Declination
Unknown
Sunlit
N/A
Visualization observer readout
Local Sidereal Time
16:38:15
Azimuth
Unknown
Elevation
Unknown
Doppler factor
Unknown
Orbital elements
Apogee altitude
147.919 km
Perigee altitude
145.704 km
Semi-major axis
6,524.948 km
Eccentricity
0.00017
Inclination
53.2004°
RAAN
179.4614°
Arg. of periapsis
325.8457°
True anomaly
158.11045°
Mean anomaly
158.1032°
Eccentric anomaly
158.10683°
Mean motion
4.11792 °/min
Orbital period
87.42 mins
BSTAR
0.0003136
Loading maneuver chart data...
Computing Atmospheric mass density...
Loading historical data...
Loading historical data...
Loading historical data...
Loading historical data...
Loading historical data...
Loading historical data...
Loading historical data...

Documentation

Showing up to 5 results
|